Chatham, MA

6:12 PM EDT on March 23, 2017 (GMT -0400)
Chatham Municipal

Weather History for KCQX - June, 2014

Change the Weather History Date:

Tuesday, June 10, 2014

  Actual Average Record
Temperature  
Mean Temperature 64 °F -  
Max Temperature 71 °F 65 °F 86 °F (1984)
Min Temperature 59 °F 53 °F 46 °F (1988)
Growing Degree Days 14 (Base 50)    
Moisture  
Dew Point 62 °F    
Average Humidity 93    
Maximum Humidity 100    
Minimum Humidity 84    
Precipitation  
Precipitation 0.32 in - - ()
Sea Level Pressure  
Sea Level Pressure 30.01 in    
Wind  
Wind Speed 5 mph (SW)    
Max Wind Speed 13 mph    
Max Gust Speed 21 mph    
Visibility 8 miles    
Events Rain    
Averages and records for this station are not official NWS values.
T = Trace of Precipitation, MM = Missing Value Source: NWS Daily Summary

Daily Weather History Graph

Daily Weather History Graph

Search for Another Location

Airport or City:

Trip Planner

Search our weather history database for the weather conditions in past years. The results will help you decide how hot, cold, wet, or windy it might be!

Date:

Astronomy

Jun. 10, 2014 Rise Set
Actual Time 5:05 AM EDT 8:13 PM EDT
Civil Twilight 4:31 AM EDT 8:47 PM EDT
Nautical Twilight 3:47 AM EDT 9:31 PM EDT
Astronomical Twilight 2:55 AM EDT 10:23 PM EDT
Moon 5:33 PM EDT (6/10) 3:10 AM EDT (6/10)
Length of Visible Light 16h 16m
Length of Day
15h 08m
Waxing Gibbous, 92% of the Moon is Illuminated
Jun 10
Waxing Gibbous
Jun 13
Full
Jun 19
Last Quarter
Jun 27
New
Jul 5
First Quarter

Hourly Weather History & Observations

Time (EDT) Temp. Dew Point Humidity Pressure Visibility Wind Dir Wind Speed Gust Speed Precip Events Conditions
12:52 AM 63.0 °F 59.0 °F 87% 30.01 in 10.0 mi SW 3.5 mph - N/A   Overcast
1:23 AM 62.1 °F 60.1 °F 93% 30.00 in 1.8 mi Calm Calm - 0.08 in Rain Heavy Rain
1:32 AM 62.1 °F 61.0 °F 96% 30.00 in 3.0 mi Calm Calm - 0.10 in Rain Rain
1:52 AM 62.1 °F 61.0 °F 96% 30.00 in 10.0 mi Calm Calm - 0.10 in   Overcast
2:52 AM 61.0 °F 60.1 °F 97% 30.00 in 10.0 mi SSE 4.6 mph - 0.01 in   Overcast
3:52 AM 61.0 °F 60.1 °F 97% 30.00 in 10.0 mi Calm Calm - N/A   Overcast
4:29 AM 60.1 °F 59.0 °F 96% 29.99 in 2.5 mi Calm Calm - 0.03 in Rain Rain
4:35 AM 60.1 °F 59.0 °F 96% 29.99 in 4.0 mi Calm Calm - 0.03 in Rain Light Rain
4:52 AM 61.0 °F 60.1 °F 97% 30.00 in 5.0 mi Variable 3.5 mph - 0.04 in Rain Light Rain
5:14 AM 61.0 °F 60.1 °F 97% 30.00 in 4.0 mi South 3.5 mph - 0.01 in Rain Light Rain
5:52 AM 64.0 °F 64.0 °F 100% 30.00 in 4.0 mi SSW 4.6 mph - 0.01 in   Overcast
6:52 AM 66.0 °F 64.9 °F 96% 29.99 in 10.0 mi SSW 5.8 mph - N/A   Overcast
7:09 AM 66.9 °F 64.9 °F 93% 29.99 in 10.0 mi Variable 6.9 mph - N/A   Overcast
7:18 AM 66.0 °F 64.0 °F 93% 29.99 in 10.0 mi Variable 4.6 mph - N/A   Overcast
8:37 AM 64.9 °F 64.0 °F 97% 30.00 in 10.0 mi Variable 5.8 mph - N/A   Overcast
8:52 AM 66.0 °F 64.0 °F 93% 30.00 in 10.0 mi SSW 5.8 mph - N/A   Overcast
9:00 AM 66.0 °F 64.0 °F 93% 30.00 in 10.0 mi SSW 4.6 mph - N/A   Overcast
9:22 AM 64.9 °F 64.0 °F 97% 30.00 in 6.0 mi SW 6.9 mph - 0.01 in Rain Light Rain
9:39 AM 64.9 °F 64.0 °F 97% 30.00 in 3.0 mi SW 8.1 mph - 0.06 in Rain Light Rain
9:57 AM 64.9 °F 64.0 °F 97% 30.00 in 1.8 mi Variable 5.8 mph - 0.03 in Rain Rain
10:15 AM 64.9 °F 64.0 °F 97% 30.00 in 3.0 mi Variable 5.8 mph - 0.07 in Rain Light Rain
10:35 AM 64.9 °F 64.0 °F 97% 30.00 in 1.8 mi SW 6.9 mph - 0.09 in Rain Rain
11:14 AM 64.9 °F 64.9 °F 100% 29.99 in 1.2 mi Variable 4.6 mph - 0.13 in Rain Light Rain
11:30 AM 66.9 °F 66.0 °F 97% 29.99 in 2.0 mi SW 5.8 mph - 0.16 in Rain Light Rain
11:37 AM 66.9 °F 66.0 °F 97% 29.99 in 3.0 mi SW 8.1 mph - 0.16 in Rain Light Rain
11:52 AM 68.0 °F 66.9 °F 96% 29.99 in 5.0 mi SSW 9.2 mph 17.3 mph 0.16 in   Overcast
12:04 PM 69.1 °F 69.1 °F 100% 29.98 in 8.0 mi SW 9.2 mph - N/A   Overcast
12:39 PM 70.0 °F 66.9 °F 90% 29.98 in 10.0 mi SW 9.2 mph - N/A   Mostly Cloudy
12:52 PM 70.0 °F 66.9 °F 90% 29.98 in 10.0 mi SW 12.7 mph 20.7 mph N/A   Mostly Cloudy
1:45 PM 66.9 °F 64.0 °F 90% 29.98 in 10.0 mi SW 9.2 mph 18.4 mph N/A   Overcast
1:52 PM 66.9 °F 64.0 °F 90% 29.98 in 10.0 mi WSW 9.2 mph 18.4 mph N/A   Overcast
2:52 PM 69.1 °F 64.0 °F 84% 29.99 in 10.0 mi WSW 9.2 mph - N/A   Overcast
5:21 PM 66.9 °F 63.0 °F 87% 29.99 in 10.0 mi SW 6.9 mph - 0.00 in Rain Light Rain
5:52 PM 66.9 °F 63.0 °F 87% 29.99 in 10.0 mi Variable 4.6 mph - 0.00 in   Overcast
7:03 PM 64.9 °F 62.1 °F 90% 30.01 in 10.0 mi SW 5.8 mph - N/A   Overcast
7:30 PM 64.9 °F 62.1 °F 90% 30.01 in 10.0 mi WSW 3.5 mph - N/A   Overcast
7:52 PM 64.9 °F 62.1 °F 90% 30.04 in 10.0 mi NE 10.4 mph - N/A   Overcast
7:57 PM 64.0 °F 61.0 °F 90% 30.03 in 10.0 mi NNE 6.9 mph - N/A   Overcast
8:52 PM 61.0 °F 59.0 °F 93% 30.05 in 10.0 mi NE 10.4 mph - N/A   Overcast
9:19 PM 61.0 °F 57.9 °F 90% 30.05 in 10.0 mi NE 9.2 mph - N/A   Overcast
9:35 PM 60.1 °F 57.9 °F 93% 30.05 in 10.0 mi NE 9.2 mph - N/A   Overcast
9:44 PM 60.1 °F 57.9 °F 93% 30.06 in 10.0 mi NNE 9.2 mph 16.1 mph N/A   Overcast
9:52 PM 60.1 °F 57.0 °F 90% 30.06 in 10.0 mi NE 8.1 mph - N/A   Overcast
10:52 PM 59.0 °F 55.0 °F 87% 30.07 in 10.0 mi NE 11.5 mph - N/A   Overcast
11:20 PM 59.0 °F 55.0 °F 87% 30.07 in 10.0 mi NE 9.2 mph 16.1 mph N/A   Overcast
11:52 PM 59.0 °F 55.0 °F 87% 30.07 in 10.0 mi NE 10.4 mph - N/A   Overcast